FW1873 Weather Reports


time (UTC)temp
C
wind
direction
speed
KPH
gust
KPH
rain 1hr
cm
rain 24hr
cm
rain mn
cm
humidity
%
barometer
mb
20260505040849 20 227 4.8 6.4 0.00 0.00 0.00 52 1030.7
20260505035847 20 216 6.4 12.9 0.00 0.00 0.00 52 1030.7
20260505034844 20 220 3.2 6.4 0.00 0.00 0.00 52 1031.1
20260505033843 20 205 8.0 11.3 0.00 0.00 0.00 52 1031.1
20260505032849 20 220 6.4 12.9 0.00 0.00 0.00 52 1031.1
20260505031908 20 225 4.8 8.0 0.00 0.00 0.00 52 1030.9
20260505030846 20 212 6.4 12.9 0.00 0.00 0.00 52 1030.7
20260505025845 20 228 6.4 11.3 0.00 0.00 0.00 52 1030.7
20260505024853 20 232 8.0 16.1 0.00 0.00 0.00 52 1030.6
20260505023840 20 219 6.4 12.9 0.00 0.00 0.00 52 1030.4
20260505022928 20 248 3.2 6.4 0.00 0.00 0.00 52 1030.4
20260505021856 20 220 6.4 8.0 0.00 0.00 0.00 52 1030.4
20260505020834 20 243 6.4 12.9 0.00 0.00 0.00 52 1030.0
20260505015853 20 209 4.8 6.4 0.00 0.00 0.00 52 1030.0
20260505014830 21 230 4.8 11.3 0.00 0.00 0.00 52 1030.0
20260505013900 21 229 6.4 12.9 0.00 0.00 0.00 51 1029.7
20260505012827 21 227 6.4 8.0 0.00 0.00 0.00 52 1029.7
20260505011824 21 209 4.8 8.0 0.00 0.00 0.00 51 1029.7
20260505010852 21 217 4.8 11.3 0.00 0.00 0.00 50 1029.7
20260505005850 21 226 8.0 12.9 0.00 0.00 0.00 50 1029.5
20260505004818 22 216 4.8 8.0 0.00 0.00 0.00 49 1029.4
20260505003844 22 249 6.4 12.9 0.00 0.00 0.00 48 1029.6
20260505002842 22 215 4.8 11.3 0.00 0.00 0.00 48 1029.4
20260505001840 22 232 4.8 6.4 0.00 0.00 0.00 47 1029.7
20260505000859 23 209 8.0 12.9 0.00 0.00 0.00 46 1029.7
20260504235837 23 201 11.3 17.7 0.00 0.00 0.00 46 1029.7
20260504234835 23 267 12.9 24.1 0.00 0.00 0.00 46 1030.0
20260504233834 23 232 9.7 17.7 0.00 0.00 0.00 46 1030.0
20260504233012 23 222 11.3 19.3 0.00 0.00 0.00 46 1030.0
20260504231829 24 235 4.8 11.3 0.00 0.00 0.00 45 1030.0
20260504230827 24 222 16.1 19.3 0.00 0.00 0.00 45 1030.0
20260504225825 24 239 14.5 25.7 0.00 0.00 0.00 46 1030.4
20260504224903 23 232 11.3 24.1 0.00 0.00 0.00 49 1030.4
20260504223821 23 230 3.2 6.4 0.00 0.00 0.00 48 1030.4
20260504222819 24 210 8.0 12.9 0.00 0.00 0.00 48 1030.4
20260504221848 24 223 6.4 11.3 0.00 0.00 0.00 47 1030.4
20260504220845 24 242 4.8 6.4 0.00 0.00 0.00 46 1030.4
20260504215904 24 227 3.2 6.4 0.00 0.00 0.00 46 1030.4
20260504214842 24 217 4.8 11.3 0.00 0.00 0.00 46 1031.0
20260504213839 25 270 4.8 6.4 0.00 0.00 0.00 46 1031.1
20260504212838 25 215 6.4 12.9 0.00 0.00 0.00 45 1031.1
20260504211835 25 229 6.4 11.3 0.00 0.00 0.00 47 1031.4
20260504210835 25 219 4.8 8.0 0.00 0.00 0.00 47 1031.4
20260504205832 25 237 3.2 8.0 0.00 0.00 0.00 48 1031.4
20260504204851 24 233 8.0 17.7 0.00 0.00 0.00 47 1031.4
20260504203828 24 225 6.4 17.7 0.00 0.00 0.00 48 1031.7
20260504202826 23 244 6.4 11.3 0.00 0.00 0.00 49 1032.2
20260504201824 24 228 12.9 22.5 0.00 0.00 0.00 47 1031.7
20260504200822 25 243 12.9 24.1 0.00 0.00 0.00 47 1032.2
20260504195911 24 220 6.4 17.7 0.00 0.00 0.00 50 1032.2
20260504194848 23 216 11.3 17.7 0.00 0.00 0.00 51 1032.2
20260504193847 22 211 4.8 12.9 0.00 0.00 0.00 50 1032.5
20260504192843 21 250 4.8 16.1 0.00 0.00 0.00 48 1032.8
20260504191842 21 204 1.6 4.8 0.00 0.00 0.00 48 1033.1
20260504190850 20 260 1.6 4.8 0.00 0.00 0.00 47 1033.4
20260504185839 20 248 4.8 6.4 0.00 0.00 0.00 50 1033.5
20260504184836 20 195 4.8 16.1 0.00 0.00 0.00 51 1033.5
20260504183835 21 236 9.7 17.7 0.00 0.00 0.00 51 1033.2
20260504182853 21 241 4.8 12.9 0.00 0.00 0.00 52 1033.2
20260504181852 21 201 8.0 16.1 0.00 0.00 0.00 52 1033.2
20260504180828 22 202 12.9 25.7 0.00 0.00 0.00 51 1033.0
20260504175826 22 205 12.9 22.5 0.00 0.00 0.00 51 1032.6
20260504174824 22 228 12.9 29.0 0.00 0.00 0.00 51 1032.5
20260504173853 22 208 11.3 25.7 0.00 0.00 0.00 51 1032.5
20260504172850 21 232 4.8 11.3 0.00 0.00 0.00 50 1032.8
20260504171848 21 227 9.7 16.1 0.00 0.00 0.00 51 1032.8
20260504170846 20 240 6.4 12.9 0.00 0.00 0.00 51 1032.5
20260504150914 18 225 3.2 8.0 0.00 0.00 0.00 47 1033.5
20260504140841 17 241 8.0 12.9 0.00 0.00 0.00 43 1033.9
20260504081833 11 225 6.4 12.9 0.00 0.00 0.00 51 1034.9
20260504080853 11 225 3.2 6.4 0.00 0.00 0.00 52 1034.9
20260504045825 10 229 3.2 6.4 0.00 0.00 0.00 53 1036.7
20260504044822 10 223 3.2 6.4 0.00 0.00 0.00 54 1037.0
20260504043851 10 205 1.6 6.4 0.00 0.00 0.00 54 1037.0
20260504042818 10 203 0.0 4.8 0.00 0.00 0.00 54 1037.0